Regional Weather Roundup
Issued by NWS

Home | Current Version | Previous Version | Text Only | Print | Product List | Glossary Off
Versions: 1 2 3 4 5 6 7 8 9 10 11 12 13 14 15 16 17 18 19 20 21 22 23 24 25 26 27 28 29 30 31 32 33 34 35 36 37 38 39 40 41 42 43 44 45 46 47 48 49 50

000
ASUS43 KMKX 240059
RWRWI

WISCONSIN REGIONAL WEATHER ROUNDUP
NATIONAL WEATHER SERVICE MILWAUKEE/SULLIVAN WI
800 PM CDT MON APR 23 2018

NOTE: "FAIR" INDICATES FEW OR NO CLOUDS BELOW 12,000 FEET WITH NO
SIGNIFICANT WEATHER AND/OR OBSTRUCTIONS TO VISIBILITY.

WIZ001-002-006>008-014>016-023>028-240200-
NORTHWEST WISCONSIN

CITY           SKY/WX    TMP DP  RH WIND       PRES   REMARKS
SUPERIOR ARPT  MOCLDY    64  37  37 SW5       30.09S
ASHLAND        FAIR      54  29  38 S3        30.11S
HAYWARD        FAIR      59  33  37 CALM      30.13S
SIREN          FAIR      63  33  32 CALM      30.13S
CUMBERLAND     FAIR      57  30  35 CALM      30.13S
RICE LAKE      FAIR      58  35  41 CALM      30.15S
CHETEK         FAIR      55  33  44 CALM      30.13S
LADYSMITH      FAIR      57  30  35 NW5       30.15S
EAU CLAIRE     NOT AVBL
MENOMONIE      FAIR      65  29  25 CALM      30.12S
NEW RICHMOND   FAIR      63  33  32 CALM      30.13S
OSCEOLA        FAIR      64  35  33 S3        30.15S
$$

WIZ003>005-009-010-017-018-240200-
NORTH CENTRAL WISCONSIN

CITY           SKY/WX    TMP DP  RH WIND       PRES   REMARKS
MANITOWISH WTR FAIR      56  27  32 CALM      30.13S
ARBOR VITAE    FAIR      57  27  31 CALM      30.13S
WOODRUFF       FAIR      57  27  31 CALM      30.13S
RHINELANDER    FAIR      57  25  29 CALM      30.13F
EAGLE RIVER    FAIR      52  24  33 CALM      30.12S
LAND O LAKES   FAIR      50  24  37 CALM      30.14S
PHILLIPS       FAIR      57  29  35 CALM      30.13S
TOMAHAWK       FAIR      54  24  31 CALM      30.13F
MEDFORD        FAIR      57  33  40 CALM      30.13S
MERRILL        FAIR      60  29  30 CALM      30.13F
$$

WIZ029-030-035-036-043>047-240200-
CENTRAL WISCONSIN

CITY           SKY/WX    TMP DP  RH WIND       PRES   REMARKS
WAUSAU         FAIR      59  27  29 E5        30.11S
MOSINEE        PTCLDY    54  28  37 S5        30.14S
MARSHFIELD     FAIR      56  32  40 CALM      30.12S
STEVENS POINT  FAIR      56  21  25 SE3       30.14S
WAUPACA        FAIR      57  23  27 CALM      30.14S
WAUTOMA        FAIR      56  31  38 E5        30.14S
WISC RAPIDS    FAIR      53  24  32 CALM      30.14S
CAMP DOUGLAS   NOT AVBL
$$

WIZ011>013-019>022-031-037>040-048>050-240200-
NORTHEAST WISCONSIN

CITY           SKY/WX    TMP DP  RH WIND       PRES   REMARKS
ANTIGO         FAIR      55  32  42 CALM      30.14S
SHAWANO        FAIR      53  30  41 CALM      30.14S
OCONTO         FAIR      52  29  41 CALM      30.14S
STURGEON BAY   FAIR      53  28  38 E6        30.15
GREEN BAY      FAIR      53  32  44 NE6       30.14S
MANITOWOC      FAIR      53  26  35 NE6       30.14F
APPLETON       PTCLDY    55  27  33 E6        30.12F
CLINTONVILLE   FAIR      51  28  40 CALM      30.14S
OSHKOSH        FAIR      56  31  38 E5        30.13S
$$

WIZ032>034-041-042-053>061-240200-
SOUTHWEST WISCONSIN

CITY           SKY/WX    TMP DP  RH WIND       PRES   REMARKS
LA CROSSE      FAIR      64  28  25 CALM      30.09S
SPARTA         FAIR      63  26  25 E6        30.12S
VIROQUA        FAIR      58  33  38 NE6       30.11S
BOSCOBEL       FAIR      64  27  24 CALM      30.10S
PRAIRIE DU CHI FAIR      65  23  20 E6        30.09S
PLATTEVILLE    FAIR      61  33  34 NE7       30.10S
$$

WIZ056-057-062-063-064-067-068-240200-
SOUTH CENTRAL WISCONSIN

CITY           SKY/WX    TMP DP  RH WIND       PRES   REMARKS
REEDSBURG      FAIR      60  30  32 E6        30.11S
BARABOO/DELLS  FAIR      60  26  27 E7        30.12S
LONE ROCK      NOT AVBL
MINERAL POINT  FAIR      61  30  31 NE6       30.11S
MADISON        MOCLDY    55  34  45 NE8       30.11S
MIDDLETON      FAIR      59  34  38 NE7       30.12R
WATERTOWN      FAIR      58  29  32 NE6       30.11S
MONROE         FAIR      59  28  31 NE8       30.10S
JANESVILLE     PTCLDY    59  28  31 E7        30.10S
$$

WIZ051-052-058>065-066-070>072-240200-
SOUTHEAST WISCONSIN

CITY           SKY/WX    TMP DP  RH WIND       PRES   REMARKS
MILWAUKEE      MOCLDY    52  25  35 N13       30.13S
WAUKESHA       CLEAR     50  25  37 E7        30.13S
MILWAUKEE/TIMM CLEAR     54  18  24 NE8       30.13S
RACINE         FAIR      49  25  39 N14       30.13S
BURLINGTON     FAIR      55  25  31 E5        30.11S
KENOSHA        FAIR      52  24  33 NE12      30.11S
FOND DU LAC    FAIR      51  34  52 NE7       30.13S
SHEBOYGAN      FAIR      47  32  56 NE6       30.13S
WEST BEND      FAIR      55  27  33 NE5       30.13S
JUNEAU         FAIR      55  28  35 N3        30.13S
$$

LSZ147-162-240200-
LAKE SUPERIOR

STATION/POSITION TIME  TEMP    WIND        PRES    WAVE
                       AIR SEA DIR/SP/G            HT/PER
                 (UTC) (F)     (DEG/KT/KT) (MB)    (FT/S)
DEVILS ISLAND    0000   62     200/  7/  9 1019.0F
SAXON HARBOR     0040   49     190/  2/  3 1018.6F
$$

LMZ867-665-643>646-240200-
LAKE MICHIGAN

STATION/POSITION TIME  TEMP    WIND        PRES    WAVE
                       AIR SEA DIR/SP/G            HT/PER
                 (UTC) (F)     (DEG/KT/KT) (MB)    (FT/S)
NORTHPORT PIER   0040   42                 1020.3F
KEWAUNEE LAKESHO 0024   45      20/  5/  7 1020.2
SHEBOYGAN LAKESH 0000   46      10/ 11/ 12 1020.9F
PORT WASHINGTON  0040   54      30/  6/ 10 1021.0F
MILWAUKEE LAKESH 0030   51     360/ 14/ 16   N/A
KENOSHA   LAKESH 0000   49                 1019.3
$$

TC  - TEMPERATURE IN CELSIUS
VSB - VISIBILITY IN STATUTE MILES
WCI - WIND CHILL INDEX
HX  - HEAT INDEX





USA.gov is the U.S. government's official web portal to all federal, state and local government web resources and services.